User: anonymous   Login
Location: Asheville, NC
(35.6000°N, 82.5500°W)
Time: 05:32:57
(UTC-05:00)
Language:

ELECTRON R/B - Orbit

View from above orbital plane
View from above orbital plane
View from above satellite
View from above satellite

Ground track
Ground track

The orbit data is extracted from the following two-line orbital elements,

1 43166U 18010D   18048.60446941 +.00035295 -90952-6 +28030-3 0  9997
2 43166 082.9199 112.2663 0168034 121.4006 240.3828 15.54511561004271
Epoch (UTC): 17 February 2018 14:30:26
Eccentricity: 0.0168034
inclination: 82.9199°
perigee height: 289 km
apogee height: 517 km
right ascension of ascending node: 112.2663°
argument of perigee: 121.4006°
revolutions per day: 15.54511561
mean anomaly at epoch: 240.3828°
orbit number at epoch: 427

The dashed part of the orbit path shows where the satellite is in the earth's shadow,  

DLR